Zurück zum Katalog

MINOTAUR R/B

AktivPO
NORAD 37365·ROCKET BODY·🇺🇸 United States

Gestartet Feb 6, 2011 von Vandenberg Space Force Base

Loading…

Nächste Überflüge (nächste 24 Stunden)

TLE

VeraltetSource: Mike McCants

Epoche: Aug 19, 2026, 20:33 UTC

1 37365U 11006B   26231.85669081 0.00000000  00000-0  00000-0 0    02
2 37365  90.1792  94.5996 0005000   7.2915 352.7083 13.11922404    00

Verfolge MINOTAUR R/B in Echtzeit mit AllMySat

Download on the App Store